Kulusuk, Greenland

3:41 AM -02 on April 25, 2017 (GMT -0200)
Kulusuk

Weather History for BGKK - August, 2013

Change the Weather History Date:

Sunday, August 11, 2013

  Actual Average Record
Temperature  
Mean Temperature 44 °F -  
Max Temperature 51 °F 43 °F 59 °F (2004)
Min Temperature 37 °F 37 °F 35 °F (2006)
Degree Days  
Heating Degree Days 21    
Moisture  
Dew Point 33 °F    
Average Humidity 64    
Maximum Humidity 81    
Minimum Humidity 41    
Precipitation  
Precipitation 0.00 in - - ()
Sea Level Pressure  
Sea Level Pressure 29.86 in    
Wind  
Wind Speed 6 mph ()    
Max Wind Speed 13 mph    
Max Gust Speed -    
Visibility 6.2 miles    
Events      
Averages and records for this station are not official NWS values.
T = Trace of Precipitation, MM = Missing Value Source: Averaged Metar Reports

Daily Weather History Graph

Daily Weather History Graph

Search for Another Location

Airport or City:

Trip Planner

Search our weather history database for the weather conditions in past years. The results will help you decide how hot, cold, wet, or windy it might be!

Date:

Astronomy

Aug. 11, 2013 Rise Set
Actual Time 3:56 AM -02 9:08 PM -02
Civil Twilight 2:35 AM -02 10:26 PM -02
Nautical Twilight Sun does not set Sun does not set
Astronomical Twilight Sun does not set Sun does not set
Moon 10:58 AM -02 (8/11) 8:48 PM -02 (8/11)
Length of Visible Light 19h 50m
Length of Day
17h 12m
Waxing Crescent, 21% of the Moon is Illuminated
Aug 11
Waxing Crescent
Aug 14
First Quarter
Aug 20
Full
Aug 28
Last Quarter
Sep 5
New

Hourly Weather History & Observations

Time (-02) Temp. Windchill Dew Point Humidity Pressure Visibility Wind Dir Wind Speed Gust Speed Precip Events Conditions
12:50 AM 42.8 °F 39.3 °F 32.0 °F 66% 29.95 in - WSW 5.8 mph - N/A   Unknown
1:50 AM 41.0 °F 37.1 °F 30.2 °F 65% 29.95 in - WSW 5.8 mph - N/A   Unknown
2:50 AM 41.0 °F 37.1 °F 28.4 °F 61% 29.95 in - WSW 5.8 mph - N/A   Unknown
3:50 AM 41.0 °F 38.0 °F 28.4 °F 61% 29.95 in - West 4.6 mph - N/A   Unknown
4:00 AM 39 °F - 29 °F 56% 29.97 in - WSW 5.8 mph - -  
4:50 AM 37.4 °F 34.9 °F 32.0 °F 81% 29.95 in - West 3.5 mph - N/A   Unknown
5:50 AM 39.2 °F 37.0 °F 33.8 °F 81% 29.95 in - West 3.5 mph - N/A   Unknown
6:50 AM 41.0 °F 38.0 °F 33.8 °F 76% 29.95 in 6.2 mi Variable 4.6 mph - N/A   Clear
7:00 AM 42 °F - 33 °F 60% 29.96 in - ESE 2.3 mph - -  
7:50 AM 44.6 °F 40.2 °F 35.6 °F 71% 29.95 in 6.2 mi WSW 8.1 mph - N/A   Clear
8:50 AM 44.6 °F 39.7 °F 37.4 °F 76% 29.95 in 6.2 mi SSW 9.2 mph - N/A   Clear
9:50 AM 48.2 °F - 41.0 °F 76% 29.92 in 6.2 mi SW 8.1 mph - N/A   Partly Cloudy
10:00 AM 45 °F - 35 °F 58% 29.94 in - WSW 12.7 mph - -  
10:50 AM 46.4 °F 41.9 °F 37.4 °F 71% 29.89 in 6.2 mi SSW 9.2 mph - N/A   Clear
11:50 AM 48.2 °F - 41.0 °F 76% 29.89 in 6.2 mi SSW 11.5 mph - N/A   Clear
12:50 PM 46.4 °F 40.7 °F 33.8 °F 62% 29.86 in 6.2 mi SSW 12.7 mph - N/A   Clear
1:00 PM 48 °F - 35 °F 49% 29.86 in - SW 12.7 mph - -  
1:50 PM 48.2 °F - 33.8 °F 58% 29.83 in 6.2 mi WSW 11.5 mph - N/A   Clear
2:50 PM 48.2 °F - 32.0 °F 54% 29.80 in 6.2 mi WSW 10.4 mph - N/A   Clear
3:50 PM 46.4 °F 41.9 °F 33.8 °F 62% 29.80 in - WSW 9.2 mph - N/A   Unknown
4:00 PM 48 °F - 32 °F 41% 29.81 in - SSW 8.1 mph - -  
4:50 PM 44.6 °F 38.8 °F 32.0 °F 61% 29.77 in - SSW 11.5 mph - N/A   Unknown
5:50 PM 46.4 °F 41.9 °F 30.2 °F 53% 29.77 in - SW 9.2 mph - N/A   Unknown
6:50 PM 44.6 °F 39.7 °F 32.0 °F 61% 29.74 in - WSW 9.2 mph - N/A   Unknown
7:00 PM 44 °F - 30 °F 46% 29.77 in - WSW 9.2 mph - -  
7:50 PM 44.6 °F 39.7 °F 26.6 °F 49% 29.74 in - WSW 9.2 mph - N/A   Unknown
8:50 PM 41.0 °F 39.0 °F 30.2 °F 65% 29.74 in - West 3.5 mph - N/A   Unknown
9:50 PM 39.2 °F 35.9 °F 30.2 °F 70% 29.74 in - NW 4.6 mph - N/A   Unknown
10:00 PM 40 °F - 31 °F 59% 29.76 in - West 3.5 mph - -  
10:50 PM 41.0 °F 33.9 °F 32.0 °F 70% 29.74 in - SSW 12.7 mph - N/A   Unknown
11:50 PM 39.2 °F - 33.8 °F 81% 29.74 in - Variable 1.2 mph - N/A   Unknown